FW8529 Weather Reports


time (UTC)temp
F
wind
direction
speed
knots
gust
knots
rain 1hr
in
rain 24hr
in
rain mn
in
humidity
%
barometer
mb
20260505052025 70 123 0.9 3.5 0.00 0.00 0.00 74 1017.0
20260505051538 70 108 0.0 3.5 0.00 0.00 0.00 74 1017.2
20260505051025 70 107 0.9 3.5 0.00 0.00 0.00 74 1017.3
20260505050525 70 0 0.9 3.5 0.00 0.00 0.00 74 1017.4
20260505041536 71 107 0.9 3.5 0.00 0.00 0.00 72 1017.8
20260505041026 71 128 0.0 3.5 0.00 0.00 0.00 72 1017.6
20260505040525 71 147 0.9 3.5 0.00 0.00 0.00 71 1017.6
20260505040043 71 0 0.9 2.6 0.00 0.00 0.00 71 1017.7
20260505035529 72 0 0.9 3.5 0.00 0.00 0.00 71 1017.7
20260505035024 72 0 0.0 3.5 0.00 0.00 0.00 70 1017.8
20260505034538 72 126 1.7 3.5 0.00 0.00 0.00 70 1017.5
20260505034025 72 0 0.0 2.6 0.00 0.00 0.00 70 1017.7
20260505033523 72 0 0.0 3.5 0.00 0.00 0.00 69 1017.6
20260505033040 72 0 0.0 3.5 0.00 0.00 0.00 69 1017.6
20260505032522 73 110 0.9 3.5 0.00 0.00 0.00 69 1017.6
20260505032025 73 81 0.0 6.1 0.00 0.00 0.00 69 1017.5
20260505031551 73 79 0.9 6.1 0.00 0.00 0.00 69 1017.4
20260505031026 73 105 1.7 5.2 0.00 0.00 0.00 68 1017.5
20260505030525 73 0 0.0 5.2 0.00 0.00 0.00 68 1017.6
20260505030037 73 138 0.9 5.2 0.00 0.00 0.00 68 1017.5
20260505025525 73 125 0.9 5.2 0.00 0.00 0.00 68 1017.6
20260505025024 73 92 0.9 5.2 0.00 0.00 0.00 68 1017.6
20260505024547 73 114 0.9 5.2 0.00 0.00 0.00 68 1017.5
20260505024029 73 169 0.0 6.1 0.00 0.00 0.00 68 1017.5
20260505023525 73 105 1.7 6.1 0.00 0.00 0.00 68 1017.5
20260505023044 73 104 1.7 6.1 0.00 0.00 0.00 68 1017.4
20260505022525 73 71 0.9 6.1 0.00 0.00 0.00 68 1017.3
20260505022025 73 126 1.7 6.1 0.00 0.00 0.00 69 1017.2
20260505021538 73 138 1.7 5.2 0.00 0.00 0.00 69 1017.2
20260505021027 73 148 0.9 5.2 0.00 0.00 0.00 69 1017.1
20260505020524 73 0 0.9 5.2 0.00 0.00 0.00 70 1017.1
20260505020037 73 115 0.0 1.7 0.00 0.00 0.00 70 1017.1
20260505015524 72 0 0.0 0.9 0.00 0.00 0.00 70 1017.1
20260505015025 73 0 0.0 0.9 0.00 0.00 0.00 70 1017.0
20260505014558 73 11 0.0 0.9 0.00 0.00 0.00 70 1016.8
20260505014025 73 0 0.0 0.9 0.00 0.00 0.00 70 1016.9
20260505013521 73 0 0.0 0.9 0.00 0.00 0.00 70 1016.7
20260505013044 73 0 0.0 0.0 0.00 0.00 0.00 70 1016.6
20260505012526 73 0 0.0 0.0 0.00 0.00 0.00 69 1016.4
20260505012025 73 0 0.0 0.0 0.00 0.00 0.00 69 1016.4
20260505011548 73 0 0.0 0.0 0.00 0.00 0.00 69 1016.5
20260505011024 73 0 0.0 0.0 0.00 0.00 0.00 68 1016.5
20260505010525 73 0 0.0 0.0 0.00 0.00 0.00 68 1016.4
20260505010040 73 0 0.0 0.9 0.00 0.00 0.00 68 1016.3
20260505005525 74 0 0.0 0.9 0.00 0.00 0.00 67 1016.3
20260505005025 74 0 0.0 0.9 0.00 0.00 0.00 67 1016.3
20260505004538 74 0 0.0 0.0 0.00 0.00 0.00 66 1016.2
20260505004021 74 0 0.0 0.0 0.00 0.00 0.00 65 1016.2
20260505003525 74 0 0.0 0.0 0.00 0.00 0.00 65 1016.0
20260505003038 74 0 0.0 0.0 0.00 0.00 0.00 64 1015.9
20260505002524 75 0 0.0 0.0 0.00 0.00 0.00 64 1015.8
20260505002022 75 0 0.0 0.0 0.00 0.00 0.00 64 1015.8
20260505001543 75 0 0.0 0.9 0.00 0.00 0.00 63 1015.8
20260505001025 75 0 0.0 0.9 0.00 0.00 0.00 63 1015.9
20260505000521 75 0 0.0 1.7 0.00 0.00 0.00 63 1015.7
20260505000037 75 0 0.0 1.7 0.00 0.00 0.00 63 1015.7
20260504235525 76 0 0.0 1.7 0.00 0.00 0.00 62 1015.6
20260504235025 76 0 0.0 1.7 0.00 0.00 0.00 62 1015.6
20260504234541 76 0 0.0 1.7 0.00 0.00 0.00 61 1015.5
20260504234025 76 0 0.0 1.7 0.00 0.00 0.00 60 1015.3
20260504233525 77 319 0.0 2.6 0.00 0.00 0.00 60 1015.3
20260504233041 77 0 0.0 2.6 0.00 0.00 0.00 60 1015.1
20260504232525 77 324 0.9 2.6 0.00 0.00 0.00 60 1015.2
20260504232024 77 333 0.0 1.7 0.00 0.00 0.00 59 1015.2
20260504231540 77 0 0.0 1.7 0.00 0.00 0.00 59 1015.1
20260504231025 78 339 0.0 3.5 0.00 0.00 0.00 58 1015.0
20260504230524 78 329 0.9 3.5 0.00 0.00 0.00 58 1015.0
20260504230040 78 326 0.9 2.6 0.00 0.00 0.00 58 1015.0
20260504225522 78 0 0.9 3.5 0.00 0.00 0.00 58 1015.1
20260504225025 78 332 1.7 3.5 0.00 0.00 0.00 56 1015.2
20260504224538 79 323 0.9 3.5 0.00 0.00 0.00 56 1015.1
20260504224021 79 320 0.9 2.6 0.00 0.00 0.00 56 1015.3
20260504223525 80 321 0.9 2.6 0.00 0.00 0.00 56 1015.2
20260504223037 80 331 0.9 2.6 0.00 0.00 0.00 55 1015.1
20260504222525 80 313 0.0 3.5 0.00 0.00 0.00 55 1015.1
20260504222023 80 323 0.9 3.5 0.00 0.00 0.00 55 1015.1
20260504221542 80 0 0.0 2.6 0.00 0.00 0.00 55 1015.3
20260504221022 80 325 0.0 3.5 0.00 0.00 0.00 54 1015.2
20260504220522 79 331 0.0 3.5 0.00 0.00 0.00 55 1015.4
20260504220040 80 329 1.7 4.3 0.00 0.00 0.00 54 1015.3
20260504215525 80 290 1.7 4.3 0.00 0.00 0.00 53 1015.2
20260504215022 80 325 1.7 4.3 0.00 0.00 0.00 54 1015.1
20260504214536 81 344 1.7 3.5 0.00 0.00 0.00 53 1015.0
20260504214024 81 309 1.7 3.5 0.00 0.00 0.00 52 1015.2
20260504213522 83 323 0.9 3.5 0.00 0.00 0.00 49 1015.1
20260504213038 84 336 0.9 2.6 0.00 0.00 0.00 47 1015.1
20260504212522 84 316 0.0 3.5 0.00 0.00 0.00 46 1015.0
20260504212024 85 331 0.9 3.5 0.00 0.00 0.00 46 1015.1
20260504211537 85 0 0.0 6.1 0.00 0.00 0.00 44 1015.1
20260504211022 85 0 0.0 7.0 0.00 0.00 0.00 33 1015.2
20260504210522 86 134 1.7 7.0 0.00 0.00 0.00 32 1015.2
20260504210053 86 194 0.9 6.1 0.00 0.00 0.00 32 1015.2
20260504205521 86 128 1.7 6.1 0.00 0.00 0.00 33 1015.3
20260504205022 87 142 0.0 3.5 0.00 0.00 0.00 33 1015.3
20260504204553 87 17 0.9 7.8 0.00 0.00 0.00 33 1015.2
20260504204022 87 71 2.6 7.8 0.00 0.00 0.00 32 1015.4
20260504203522 87 120 3.5 7.8 0.00 0.00 0.00 32 1015.4
20260504203044 88 88 2.6 6.1 0.00 0.00 0.00 33 1015.4
20260504202522 88 0 0.0 8.7 0.00 0.00 0.00 31 1015.4
20260504202022 88 88 1.7 8.7 0.00 0.00 0.00 33 1015.4
20260504201539 88 92 2.6 7.8 0.00 0.00 0.00 33 1015.4
20260504201021 88 83 0.9 7.0 0.00 0.00 0.00 33 1015.4
20260504200522 88 57 1.7 7.0 0.00 0.00 0.00 34 1015.5
20260504200037 88 107 1.7 6.1 0.00 0.00 0.00 34 1015.5
20260504195526 87 69 0.9 6.1 0.00 0.00 0.00 34 1015.7
20260504195022 87 87 1.7 10.4 0.00 0.00 0.00 34 1015.7
20260504194537 87 152 3.5 10.4 0.00 0.00 0.00 34 1015.9
20260504194023 88 65 3.5 9.6 0.00 0.00 0.00 33 1016.0
20260504193525 88 96 2.6 7.0 0.00 0.00 0.00 34 1016.0
20260504193037 88 46 1.7 7.8 0.00 0.00 0.00 33 1016.0
20260504192521 88 123 2.6 7.8 0.00 0.00 0.00 34 1016.2
20260504192022 88 74 1.7 7.0 0.00 0.00 0.00 35 1016.3
20260504191541 88 42 1.7 5.2 0.00 0.00 0.00 35 1016.3
20260504191025 88 0 1.7 4.3 0.00 0.00 0.00 34 1016.3
20260504190522 87 150 0.9 7.0 0.00 0.00 0.00 34 1016.3
20260504190042 87 17 1.7 7.8 0.00 0.00 0.00 35 1016.5
20260504185521 87 0 1.7 8.7 0.00 0.00 0.00 35 1016.4
20260504185022 87 53 1.7 8.7 0.00 0.00 0.00 36 1016.7
20260504184540 87 139 1.7 9.6 0.00 0.00 0.00 35 1017.0
20260504184022 88 155 4.3 9.6 0.00 0.00 0.00 35 1016.8
20260504183524 88 0 0.0 6.1 0.00 0.00 0.00 35 1016.9
20260504183038 88 0 0.0 7.0 0.00 0.00 0.00 34 1017.1
20260504182521 88 153 1.7 7.0 0.00 0.00 0.00 33 1017.3
20260504182021 88 96 1.7 6.1 0.00 0.00 0.00 35 1017.2
20260504181539 88 29 0.0 7.0 0.00 0.00 0.00 33 1017.4
20260504181024 87 0 1.7 7.0 0.00 0.00 0.00 35 1017.4
20260504180521 87 124 1.7 7.0 0.00 0.00 0.00 36 1017.6
20260504180036 87 360 2.6 6.1 0.00 0.00 0.00 36 1017.5
20260504175522 87 142 0.0 6.1 0.00 0.00 0.00 38 1017.5
20260504175022 86 103 2.6 7.8 0.00 0.00 0.00 37 1017.7
20260504174541 86 214 2.6 7.8 0.00 0.00 0.00 38 1017.5
20260504174022 86 57 0.9 7.0 0.00 0.00 0.00 38 1017.7
20260504173521 86 74 2.6 7.0 0.00 0.00 0.00 38 1017.8
20260504173041 86 0 0.0 6.1 0.00 0.00 0.00 40 1017.8
20260504172523 85 0 0.0 6.1 0.00 0.00 0.00 41 1017.8
20260504172022 85 0 0.9 6.1 0.00 0.00 0.00 40 1017.8
20260504171538 85 0 0.9 6.1 0.00 0.00 0.00 40 1017.9
20260504171027 85 79 1.7 6.1 0.00 0.00 0.00 39 1018.0
20260504170524 85 100 0.0 5.2 0.00 0.00 0.00 39 1018.1
20260504151022 81 74 0.9 7.0 0.00 0.00 0.00 49 1018.8
20260504150521 81 82 2.6 9.6 0.00 0.00 0.00 50 1018.9
20260504141022 77 109 1.7 9.6 0.00 0.00 0.00 56 1018.7
20260504140521 77 32 3.5 7.0 0.00 0.00 0.00 55 1018.8
20260504130525 71 55 1.7 7.0 0.00 0.00 0.00 70 1018.5
20260504110521 58 0 0.0 1.7 0.00 0.00 0.00 91 1017.9
20260504100521 58 0 0.0 0.9 0.00 0.00 0.00 90 1017.7
20260504081538 60 0 0.0 0.0 0.00 0.00 0.00 85 1017.8
20260504081021 60 0 0.0 0.0 0.00 0.00 0.00 85 1017.8
20260504080522 60 0 0.0 0.0 0.00 0.00 0.00 85 1017.8